| time (UTC) | temp C | wind direction | speed KPH | gust KPH | rain 1hr cm | rain 24hr cm | rain mn cm | humidity % | barometer mb |
| 20260905204839 | 35 | 274 | 0.0 | 11.3 | 0.00 | 0.00 | 0.00 | 45 | 1010.8 |
| 20260905203839 | 36 | 282 | 0.0 | 12.9 | 0.00 | 0.00 | 0.00 | 42 | 1010.8 |
| 20260905202840 | 35 | 282 | 0.0 | 9.7 | 0.00 | 0.00 | 0.00 | 44 | 1010.8 |
| 20260905201838 | 35 | 315 | 0.0 | 6.4 | 0.00 | 0.00 | 0.00 | 43 | 1011.0 |
| 20260905195838 | 35 | 344 | 0.0 | 11.3 | 0.00 | 0.00 | 0.00 | 42 | 1011.1 |
| 20260905194838 | 35 | 295 | 0.0 | 8.0 | 0.00 | 0.00 | 0.00 | 43 | 1011.3 |
| 20260905192837 | 35 | 320 | 0.0 | 16.1 | 0.00 | 0.00 | 0.00 | 42 | 1011.5 |
| 20260905191836 | 35 | 294 | 0.0 | 0.0 | 0.00 | 0.00 | 0.00 | 42 | 1011.7 |
| 20260905190836 | 35 | 225 | 0.0 | 0.0 | 0.00 | 0.00 | 0.00 | 40 | 1011.9 |
| 20260905185836 | 35 | 211 | 0.0 | 0.0 | 0.00 | 0.00 | 0.00 | 43 | 1011.9 |
| 20260905184836 | 35 | 218 | 0.0 | 0.0 | 0.00 | 0.00 | 0.00 | 39 | 1012.2 |
| 20260905183835 | 35 | 227 | 0.0 | 0.0 | 0.00 | 0.00 | 0.00 | 42 | 1012.4 |
| 20260905182835 | 34 | 213 | 0.0 | 1.6 | 0.00 | 0.00 | 0.00 | 42 | 1012.3 |
| 20260905181835 | 34 | 276 | 0.0 | 6.4 | 0.00 | 0.00 | 0.00 | 42 | 1012.7 |
| 20260905180835 | 34 | 194 | 0.0 | 1.6 | 0.00 | 0.00 | 0.00 | 41 | 1012.8 |
| 20260905175834 | 34 | 201 | 0.0 | 3.2 | 0.00 | 0.00 | 0.00 | 41 | 1012.8 |
| 20260905174834 | 33 | 225 | 0.0 | 3.2 | 0.00 | 0.00 | 0.00 | 42 | 1012.8 |
| 20260905173834 | 33 | 210 | 0.0 | 9.7 | 0.00 | 0.00 | 0.00 | 43 | 1013.1 |
| 20260905172833 | 33 | 228 | 0.0 | 0.0 | 0.00 | 0.00 | 0.00 | 43 | 1013.1 |
| 20260905171834 | 33 | 223 | 0.0 | 0.0 | 0.00 | 0.00 | 0.00 | 45 | 1013.3 |
| 20260905170833 | 33 | 116 | 0.0 | 1.6 | 0.00 | 0.00 | 0.00 | 44 | 1013.3 |
| 20260905165833 | 32 | 170 | 0.0 | 9.7 | 0.00 | 0.00 | 0.00 | 43 | 1013.3 |
| 20260905164833 | 32 | 202 | 0.0 | 0.0 | 0.00 | 0.00 | 0.00 | 49 | 1013.5 |
| 20260905163832 | 32 | 141 | 0.0 | 0.0 | 0.00 | 0.00 | 0.00 | 47 | 1013.8 |
| 20260905161831 | 31 | 122 | 0.0 | 8.0 | 0.00 | 0.00 | 0.00 | 50 | 1013.8 |
| 20260905160831 | 31 | 228 | 0.0 | 16.1 | 0.00 | 0.00 | 0.00 | 48 | 1014.0 |
| 20260905155831 | 30 | 186 | 9.7 | 11.3 | 0.00 | 0.00 | 0.00 | 49 | 1014.0 |
| 20260905154830 | 30 | 215 | 0.0 | 16.1 | 0.00 | 0.00 | 0.00 | 53 | 1014.0 |
| 20260905153831 | 30 | 176 | 0.0 | 9.7 | 0.00 | 0.00 | 0.00 | 49 | 1013.9 |
| 20260905152830 | 30 | 206 | 0.0 | 11.3 | 0.00 | 0.00 | 0.00 | 50 | 1013.9 |
| 20260905150830 | 29 | 148 | 0.0 | 14.5 | 0.00 | 0.00 | 0.00 | 53 | 1014.2 |
| 20260905145829 | 29 | 154 | 0.0 | 4.8 | 0.00 | 0.00 | 0.00 | 54 | 1014.2 |
| 20260905144829 | 28 | 197 | 0.0 | 6.4 | 0.00 | 0.00 | 0.00 | 55 | 1014.4 |
| 20260905143828 | 27 | 192 | 0.0 | 0.0 | 0.00 | 0.00 | 0.00 | 60 | 1014.3 |
| 20260905142828 | 27 | 192 | 0.0 | 9.7 | 0.00 | 0.00 | 0.00 | 59 | 1014.3 |
| 20260905140827 | 26 | 193 | 0.0 | 9.7 | 0.00 | 0.00 | 0.00 | 64 | 1014.7 |
| 20260905135827 | 26 | 192 | 0.0 | 3.2 | 0.00 | 0.00 | 0.00 | 65 | 1014.7 |
| 20260905134827 | 25 | 118 | 0.0 | 6.4 | 0.00 | 0.00 | 0.00 | 67 | 1014.7 |
| 20260905133826 | 25 | 191 | 0.0 | 6.4 | 0.00 | 0.00 | 0.00 | 70 | 1015.1 |
| 20260905132826 | 25 | 166 | 0.0 | 6.4 | 0.00 | 0.00 | 0.00 | 70 | 1015.1 |
| 20260905131826 | 25 | 172 | 0.0 | 9.7 | 0.00 | 0.00 | 0.00 | 71 | 1015.2 |
| 20260905130825 | 24 | 175 | 1.6 | 1.6 | 0.00 | 0.00 | 0.00 | 74 | 1015.2 |
| 20260905125825 | 24 | 133 | 0.0 | 4.8 | 0.00 | 0.00 | 0.00 | 76 | 1015.2 |
| 20260905124825 | 24 | 176 | 1.6 | 6.4 | 0.00 | 0.00 | 0.00 | 77 | 1015.3 |
| 20260905123824 | 24 | 139 | 0.0 | 6.4 | 0.00 | 0.00 | 0.00 | 80 | 1015.3 |
| 20260905122824 | 24 | 265 | 0.0 | 6.4 | 0.00 | 0.00 | 0.00 | 82 | 1015.3 |
| 20260905121824 | 24 | 270 | 0.0 | 1.6 | 0.00 | 0.00 | 0.00 | 87 | 1015.0 |
| 20260905115824 | 23 | 72 | 0.0 | 14.5 | 0.00 | 0.00 | 0.00 | 91 | 1014.8 |
| 20260905114823 | 23 | 184 | 0.0 | 0.0 | 0.00 | 0.00 | 0.00 | 92 | 1013.6 |
| 20260905113823 | 23 | 184 | 0.0 | 0.0 | 0.00 | 0.00 | 0.00 | 92 | 1013.3 |
| 20260905112822 | 23 | 184 | 0.0 | 0.0 | 0.00 | 0.00 | 0.00 | 91 | 1013.3 |
| 20260905111822 | 23 | 177 | 0.0 | 0.0 | 0.00 | 0.00 | 0.00 | 91 | 1013.2 |
| 20260905110822 | 24 | 170 | 0.0 | 0.0 | 0.00 | 0.00 | 0.00 | 90 | 1012.9 |
| 20260905105822 | 24 | 167 | 0.0 | 1.6 | 0.00 | 0.00 | 0.00 | 91 | 1012.9 |
| 20260905102821 | 23 | 311 | 0.0 | 0.0 | 0.00 | 0.00 | 0.00 | 95 | 1013.4 |
| 20260905101820 | 23 | 271 | 0.0 | 0.0 | 0.00 | 0.00 | 0.00 | 95 | 1013.2 |
| 20260905100821 | 23 | 271 | 0.0 | 0.0 | 0.00 | 0.00 | 0.00 | 95 | 1013.0 |
| 20260905095849 | 23 | 271 | 0.0 | 0.0 | 0.00 | 0.00 | 0.00 | 95 | 1013.0 |
| 20260905094819 | 23 | 271 | 0.0 | 0.0 | 0.00 | 0.00 | 0.00 | 95 | 1012.9 |
| 20260905093819 | 23 | 271 | 0.0 | 0.0 | 0.00 | 0.00 | 0.00 | 94 | 1012.9 |
| 20260905092819 | 23 | 271 | 0.0 | 0.0 | 0.00 | 0.00 | 0.00 | 94 | 1012.9 |
| 20260905091820 | 23 | 271 | 0.0 | 0.0 | 0.00 | 0.00 | 0.00 | 94 | 1012.5 |
| 20260905090818 | 23 | 271 | 0.0 | 0.0 | 0.00 | 0.00 | 0.00 | 94 | 1012.3 |
| 20260905085848 | 23 | 271 | 0.0 | 0.0 | 0.00 | 0.00 | 0.00 | 94 | 1012.3 |
| 20260905083817 | 23 | 271 | 0.0 | 0.0 | 0.00 | 0.00 | 0.00 | 96 | 1012.5 |
| 20260905082847 | 23 | 271 | 0.0 | 0.0 | 0.00 | 0.00 | 0.00 | 96 | 1012.5 |
| 20260905081846 | 23 | 271 | 0.0 | 0.0 | 0.00 | 0.00 | 0.00 | 96 | 1012.5 |
| 20260905080846 | 24 | 271 | 0.0 | 0.0 | 0.00 | 0.00 | 0.00 | 97 | 1012.1 |
| 20260905075846 | 24 | 271 | 0.0 | 0.0 | 0.00 | 0.00 | 0.00 | 97 | 1012.1 |
| 20260905074846 | 24 | 271 | 0.0 | 0.0 | 0.00 | 0.00 | 0.00 | 97 | 1012.3 |
| 20260905071845 | 23 | 273 | 0.0 | 0.0 | 0.00 | 0.00 | 0.00 | 96 | 1012.6 |
| 20260905070845 | 23 | 273 | 0.0 | 0.0 | 0.00 | 0.00 | 0.00 | 96 | 1012.6 |
| 20260905065844 | 23 | 273 | 0.0 | 0.0 | 0.00 | 0.00 | 0.00 | 96 | 1012.6 |
| 20260905064844 | 24 | 273 | 0.0 | 0.0 | 0.00 | 0.00 | 0.00 | 96 | 1012.8 |
| 20260905063844 | 24 | 273 | 0.0 | 0.0 | 0.00 | 0.00 | 0.00 | 95 | 1012.9 |
| 20260905062843 | 24 | 273 | 0.0 | 0.0 | 0.00 | 0.00 | 0.00 | 95 | 1012.9 |
| 20260905061844 | 24 | 273 | 0.0 | 0.0 | 0.00 | 0.00 | 0.00 | 95 | 1013.0 |
| 20260905055842 | 24 | 273 | 0.0 | 0.0 | 0.00 | 0.00 | 0.00 | 94 | 1013.3 |
| 20260905054842 | 24 | 273 | 0.0 | 0.0 | 0.00 | 0.00 | 0.00 | 94 | 1013.2 |
| 20260905053842 | 24 | 273 | 0.0 | 0.0 | 0.00 | 0.00 | 0.00 | 94 | 1013.4 |
| 20260905052842 | 25 | 273 | 0.0 | 0.0 | 0.00 | 0.00 | 0.00 | 94 | 1013.4 |
| 20260905043840 | 25 | 273 | 0.0 | 0.0 | 0.00 | 0.00 | 0.00 | 93 | 1013.4 |
| 20260905041839 | 25 | 273 | 0.0 | 0.0 | 0.00 | 0.00 | 0.00 | 92 | 1013.4 |
| 20260905040839 | 25 | 273 | 0.0 | 0.0 | 0.00 | 0.00 | 0.00 | 92 | 1013.5 |
| 20260905035838 | 25 | 273 | 0.0 | 0.0 | 0.00 | 0.00 | 0.00 | 92 | 1013.5 |
| 20260905034838 | 25 | 273 | 0.0 | 0.0 | 0.00 | 0.00 | 0.00 | 92 | 1013.5 |
| 20260905033838 | 25 | 273 | 0.0 | 0.0 | 0.00 | 0.00 | 0.00 | 92 | 1013.5 |
| 20260905032837 | 26 | 273 | 0.0 | 0.0 | 0.00 | 0.00 | 0.00 | 92 | 1013.5 |
| 20260905031837 | 26 | 273 | 0.0 | 0.0 | 0.00 | 0.00 | 0.00 | 90 | 1013.4 |
| 20260905025837 | 26 | 273 | 0.0 | 0.0 | 0.00 | 0.00 | 0.00 | 89 | 1013.4 |
| 20260905024836 | 26 | 273 | 0.0 | 0.0 | 0.00 | 0.00 | 0.00 | 89 | 1013.3 |
| 20260905023836 | 26 | 273 | 0.0 | 0.0 | 0.00 | 0.00 | 0.00 | 88 | 1013.4 |
| 20260905022836 | 26 | 273 | 0.0 | 0.0 | 0.00 | 0.00 | 0.00 | 88 | 1013.4 |
| 20260905021836 | 26 | 273 | 0.0 | 0.0 | 0.00 | 0.00 | 0.00 | 87 | 1013.4 |
| 20260905020836 | 27 | 273 | 0.0 | 0.0 | 0.00 | 0.00 | 0.00 | 85 | 1013.2 |
| 20260905014835 | 27 | 273 | 0.0 | 0.0 | 0.00 | 0.00 | 0.00 | 84 | 1013.0 |
| 20260905013834 | 27 | 273 | 0.0 | 0.0 | 0.00 | 0.00 | 0.00 | 83 | 1012.8 |
| 20260905012834 | 27 | 273 | 0.0 | 0.0 | 0.00 | 0.00 | 0.00 | 82 | 1012.8 |
| 20260905005833 | 28 | 273 | 0.0 | 0.0 | 0.00 | 0.00 | 0.00 | 76 | 1012.7 |
| 20260905004833 | 29 | 273 | 0.0 | 0.0 | 0.00 | 0.00 | 0.00 | 75 | 1012.4 |
| 20260905003833 | 30 | 273 | 0.0 | 0.0 | 0.00 | 0.00 | 0.00 | 71 | 1012.1 |
| 20260905002832 | 30 | 273 | 0.0 | 0.0 | 0.00 | 0.00 | 0.00 | 71 | 1012.2 |
| 20260905001832 | 31 | 273 | 0.0 | 0.0 | 0.00 | 0.00 | 0.00 | 69 | 1012.2 |
| 20260905000832 | 31 | 273 | 0.0 | 0.0 | 0.00 | 0.00 | 0.00 | 64 | 1012.1 |
| 20260904235832 | 32 | 273 | 0.0 | 0.0 | 0.00 | 0.00 | 0.00 | 62 | 1012.1 |
| 20260904232831 | 34 | 273 | 0.0 | 0.0 | 0.00 | 0.00 | 0.00 | 54 | 1012.1 |
| 20260904231830 | 35 | 273 | 0.0 | 0.0 | 0.00 | 0.00 | 0.00 | 55 | 1012.3 |
| 20260904225830 | 36 | 272 | 0.0 | 0.0 | 0.00 | 0.00 | 0.00 | 50 | 1012.3 |
| 20260904224830 | 36 | 272 | 0.0 | 0.0 | 0.00 | 0.00 | 0.00 | 46 | 1012.4 |
| 20260904223829 | 36 | 272 | 0.0 | 0.0 | 0.00 | 0.00 | 0.00 | 44 | 1012.6 |
| 20260904222829 | 36 | 272 | 0.0 | 0.0 | 0.00 | 0.00 | 0.00 | 44 | 1012.6 |
| 20260904221828 | 36 | 273 | 0.0 | 0.0 | 0.00 | 0.00 | 0.00 | 43 | 1012.8 |
| 20260904220828 | 36 | 273 | 0.0 | 0.0 | 0.00 | 0.00 | 0.00 | 43 | 1012.8 |
| 20260904215828 | 36 | 281 | 0.0 | 0.0 | 0.00 | 0.00 | 0.00 | 43 | 1012.8 |
| 20260904214828 | 36 | 258 | 0.0 | 0.0 | 0.00 | 0.00 | 0.00 | 44 | 1012.8 |
| 20260904213828 | 37 | 274 | 0.0 | 0.0 | 0.00 | 0.00 | 0.00 | 41 | 1012.8 |
| 20260904211827 | 37 | 266 | 0.0 | 0.0 | 0.00 | 0.00 | 0.00 | 40 | 1012.8 |
| 20260904210826 | 36 | 274 | 0.0 | 11.3 | 0.00 | 0.00 | 0.00 | 40 | 1012.8 |
| 20260904205826 | 37 | 249 | 0.0 | 1.6 | 0.00 | 0.00 | 0.00 | 41 | 1012.8 |